Location: Bord�res
(43.2000°N, 0.2167°W)
Time: 13:03:40
(UTC+00:00)

ERS-2 - Pass Details

Date: 03 March 2021
Orbit: 492 x 496 km, 98.6° (Epoch: 14 April)

Event Time Altitude Azimuth Distance (km) Brightness Sun altitude
Rises 18:23:59 0° 22° (NNE) 2,592 5.5 -6.5°
Reaches altitude 10° 18:26:11 10° 30° (NNE) 1,704 4.5 -6.9°
Maximum altitude 18:29:36 37° 99° (E) 791 2.6 -7.5°
Drops below altitude 10° 18:32:59 10° 168° (SSE) 1,691 4.7 -8.2°
Sets 18:35:09 0° 177° (S) 2,569 5.7 -8.5°
